Regional Weather Roundup
Issued by NWS Albany, NY

Home | Current Version | Previous Version | Graphics & Text | Print | Product List | Glossary On
Versions: 1 2 3 4 5 6 7 8 9 10 11 12 13 14 15 16 17 18 19 20 21 22 23 24 25 26 27 28 29 30 31 32 33 34 35 36 37 38 39 40 41 42 43 44 45 46 47 48 49 50
000
ASUS41 KALY 140010
RWRALY

NEW YORK STATE HOURLY WEATHER ROUNDUP
NATIONAL WEATHER SERVICE ALBANY NY
700 PM EST SAT FEB 13 2016

NOTE: "FAIR" INDICATES FEW OR NO CLOUDS BELOW 12,000 FEET WITH NO
SIGNIFICANT WEATHER AND/OR NO OBSTRUCTIONS TO VISIBILITY.

NYZ032-033-038>043-046>054-057>066-NYZ062>081-140100-
EAST


CITY           SKY/WX    TMP DP  RH WIND       PRES   REMARKS
ALBANY         PTCLDY    -2 -18  46 W17G29    30.26R WCI -23
GLENS FALLS    CLOUDY    -4 -23  39 N15       30.24R WCI -25
POUGHKEEPSIE   MOCLDY     5 -19  32 W23G35    30.27R WCI -17
NEWBURGH       MOCLDY     1 -11  55 NW25G37   30.26R WCI -22
MONTGOMERY     CLEAR      2 -18  38 NW15G29   30.26R WCI -17
WHITE PLAINS   PTCLDY     4 -13  45 NW22G37   30.21R WCI -18
ISLIP          PTCLDY     8 -12  39 NW23G35   30.22R WCI -13
NEW YORK CITY  PTCLDY    11  -7  44 NW28G37   30.28R WCI -10
CENTRAL PARK   CLEAR      9 -16  31 NW16G29   30.28R WCI  -8
$$

NYZ005>009-017-018-044>046-055-056-140100-
CENTRAL


CITY           SKY/WX    TMP DP  RH WIND       PRES   REMARKS
FULTON         LGT SNOW   0  -8  69 NW15G22   30.31R WCI -19
SYRACUSE       LGT SNOW  -3  -6  87 N8        30.30R VSB 1   WCI -18
ROME           CLOUDY    -9 -20  58 N14       30.32R WCI -30
ELMIRA         MOCLDY     0 -11  59 VRB3      30.28R
BINGHAMTON     CLOUDY    -4 -18  51 NW14G22   30.14R WCI -24
MONTICELLO     PTCLDY    -4 -20  45 NW13G29   30.14R WCI -23
$$

NYZ026>034-041>043-140100-
NORTH


CITY           SKY/WX    TMP DP  RH WIND       PRES   REMARKS
WATERTOWN      MOCLDY   -11 -23  55 N6        30.37R WCI -25
FORT DRUM      NOT AVBL
MASSENA        CLOUDY   -13 -26  52 W14G21    30.38R WCI -35
SARANAC LAKE   CLOUDY   -20 -27  70 W9        30.08R HAZE    WCI -40
PLATTSBURGH    CLOUDY   -12 -28  45 NW15G23   30.31R WCI -35
$$

NYZ001>004-010>016-019>021-140100-
WEST


CITY           SKY/WX    TMP DP  RH WIND       PRES   REMARKS
NIAGARA FALLS  LGT SNOW   5  -4  66 NW18G26   30.38R WCI -15
BUFFALO        LGT SNOW   4  -2  76 W13G22    30.36R WCI -13
DUNKIRK        CLOUDY     7  -4  60 NW15G28   30.39R WCI -10
JAMESTOWN      CLOUDY     3  -4  72 NW22G28   30.23R VSB 1   WCI -19
WELLSVILLE     MIX PCPN  -1  -8  72 NW20G30   30.16R WCI -23
ROCHESTER      LGT SNOW   2  -4  76 NW10      30.34R WCI -14
PENN YAN       PTCLDY     0 -10  63 W8        30.27S WCI -14
$$

             KEY
       WCI = WIND CHILL INDEX
       VSB = VISIBILITY
       HX  = HEAT INDEX
$$



USA.gov is the U.S. government's official web portal to all federal, state and local government web resources and services.